Temperature
11 9 9 9 10 11 11 11 11 11 11 11 10 10 11 11 11 11 11 10 10 9 9 8 8 7 7 7 8 7 7 8 8 8 8 8 8 8 8 8 8 7 7 7
10 8 10 11 11 11 10 10 10 10 10 10 9 10 10 10 10 11 11 10 10 9 8 8 7 7 7 7 7 7 7 7 7 7 7 7 7 7 7 7 7 7 7 7
9 9 10 10 10 10 10 9 9 9 9 10 9 9 10 10 11 10 10 10 9 9 8 7 7 7 6 6 7 7 7 7 7 7 7 7 6 6 6 6 6 6 6 6
9 9 10 9 9 9 9 9 9 8 8 8 9 7 9 9 9 9 9 9 9 8 7 7 6 6 6 6 6 6 6 6 6 6 6 6 6 6 6 6 6 6 6 6
8 9 9 8 8 9 8 9 8 8 7 7 8 7 7 9 9 8 8 8 8 7 7 6 6 5 5 5 5 5 5 5 5 5 5 5 5 5 5 5 5 5 5 5
8 8 8 8 8 8 8 8 7 7 6 5 7 7 7 8 8 8 8 8 7 7 6 6 5 5 5 4 4 4 4 5 5 5 5 5 5 4 4 5 4 4 4 4
7 7 7 8 7 7 7 6 5 6 5 6 8 7 7 8 8 8 7 7 7 6 6 5 5 4 4 4 4 4 4 4 4 4 4 4 4 4 4 4 4 4 4 4
6 6 6 7 7 6 6 6 5 6 6 7 7 6 7 8 8 8 7 7 6 6 5 5 4 4 4 3 3 3 3 3 3 3 3 3 3 3 3 3 3 3 3 3
6 6 6 6 7 6 6 6 6 5 5 5 6 7 7 7 7 6 6 6 6 5 5 4 4 4 3 3 3 3 3 3 3 3 3 3 3 3 2 2 2 2 2 2
6 5 6 6 6 6 6 6 5 5 5 5 7 7 6 6 6 6 5 5 5 5 4 4 4 3 3 3 2 2 2 2 2 2 2 2 2 2 2 2 2 2 2 2
6 4 4 5 4 4 5 5 5 5 5 5 5 6 7 6 6 5 5 5 5 4 4 4 3 3 2 2 2 2 2 2 1 1 1 1 1 1 1 1 1 1 1 1
5 4 3 4 4 4 4 5 4 4 4 4 4 5 7 6 5 5 5 5 4 4 4 3 3 2 2 2 1 1 1 1 1 1 1 1 1 1 1 1 1 1 1 1
4 3 3 3 3 2 2 3 3 3 3 3 4 5 6 5 5 5 5 4 4 3 3 3 2 2 1 1 1 1 1 1 1 1 1 1 1 1 0 0 0 0 -0 -0
4 2 2 4 4 2 2 2 2 2 2 3 4 5 5 5 4 4 4 4 4 3 3 2 2 1 1 1 1 1 0 0 0 0 0 0 0 -0 -0 -0 -0 -0 -1 -1
2 2 2 2 3 3 2 2 1 1 2 2 3 3 4 4 3 4 4 4 3 3 2 2 1 1 1 0 0 0 0 0 -0 -0 -0 -0 -0 -1 -1 -1 -1 -1 -1 -1
1 1 1 1 2 2 1 2 1 1 1 2 2 2 4 4 4 4 4 3 3 2 2 2 1 1 0 0 -0 -0 -0 -0 -1 -1 -1 -1 -1 -1 -1 -1 -1 -1 -1 -2
0 0 1 2 2 1 1 1 1 1 1 1 2 3 3 3 2 3 3 3 2 2 2 1 1 1 0 0 -0 -0 -1 -1 -1 -1 -1 -1 -1 -1 -1 -1 -1 -1 -2 -2
-0 -0 1 1 1 1 2 2 2 1 1 1 1 2 2 2 3 3 3 3 2 2 1 1 1 0 0 -0 -0 -1 -1 -1 -1 -1 -1 -1 -2 -2 -2 -2 -2 -2 -2 -2
-0 -0 1 1 1 2 2 2 1 1 1 1 1 1 2 2 2 2 3 2 2 2 1 1 1 0 -0 -0 -1 -1 -1 -1 -2 -2 -2 -2 -2 -2 -2 -2 -2 -2 -2 -3
-1 -1 -0 1 1 1 3 2 2 1 0 2 1 1 1 1 -0 1 2 2 1 1 1 0 0 -0 -0 -1 -1 -1 -1 -2 -2 -2 -2 -2 -2 -2 -2 -2 -3 -3 -3 -3
-2 -1 -1 -0 0 1 2 1 1 1 1 2 2 2 1 0 0 2 1 1 1 1 0 0 -0 -0 -1 -1 -1 -1 -2 -2 -2 -2 -2 -2 -2 -3 -3 -3 -3 -3 -3 -3
-1 -1 -1 -0 0 1 0 0 0 1 2 2 2 2 1 1 1 1 1 1 0 0 -0 -0 -1 -1 -1 -1 -2 -2 -2 -2 -2 -2 -3 -3 -3 -3 -3 -3 -3 -3 -4 -4
-1 -1 -1 -0 1 1 1 1 2 2 2 2 1 1 1 0 0 0 -0 -0 -0 -0 -1 -1 -1 -1 -2 -2 -2 -2 -2 -2 -2 -3 -3 -3 -3 -3 -3 -3 -3 -4 -4 -4
-1 -1 -1 -1 -0 1 1 2 2 2 1 1 1 1 0 -0 -0 -0 -1 -1 -1 -1 -1 -1 -2 -2 -2 -2 -2 -2 -2 -3 -3 -3 -3 -3 -3 -3 -3 -4 -4 -4 -4 -4
-0 -2 -2 -2 -1 0 1 1 1 1 1 1 0 0 -0 -0 -0 -1 -1 -1 -1 -1 -1 -2 -2 -2 -2 -2 -3 -3 -3 -3 -3 -3 -3 -3 -4 -4 -4 -4 -4 -4 -4 -5
-1 -2 -2 -1 0 -0 1 2 1 1 1 0 0 -0 -0 -1 -1 -1 -1 -1 -1 -2 -2 -2 -2 -3 -3 -3 -3 -3 -3 -3 -3 -3 -3 -4 -4 -4 -4 -4 -4 -4 -5 -5
Wind_Speed
4 3 3 4 6 5 5 5 6 3 1 3 7 9 7 5 6 6 5 5 4 4 4 5 4 4 4 4 4 4 3 2 2 2 1 1 1 0 1 2 1 2 3 3
3 5 5 4 4 5 6 6 5 2 1 3 6 9 8 6 7 5 5 5 4 4 5 5 5 4 4 4 4 3 3 2 2 1 1 1 1 1 1 1 1 1 1 2
4 0 2 3 3 4 5 4 4 4 5 6 6 7 7 5 6 5 4 3 3 3 4 5 4 4 4 4 3 2 2 2 1 1 1 1 1 0 0 0 0 1 1 1
2 2 2 3 3 4 4 2 3 3 3 3 2 4 4 4 5 5 4 3 3 3 3 4 3 3 3 3 3 2 1 1 1 1 1 2 1 1 1 1 1 1 1 1
2 1 2 3 3 3 1 2 2 3 4 4 5 5 5 4 5 5 4 3 2 2 3 4 4 3 3 3 2 2 1 1 1 1 1 2 2 2 1 1 2 2 2 1
2 1 1 1 1 1 0 1 3 4 2 5 7 6 4 3 4 4 4 3 3 2 2 3 4 4 3 3 2 2 1 1 1 1 2 2 3 2 2 2 2 2 2 2
3 2 1 1 1 2 1 1 0 2 3 5 4 4 4 1 2 4 4 3 3 3 2 3 4 3 3 3 2 2 1 1 1 1 1 1 2 3 3 3 3 2 2 2
4 3 4 2 1 2 4 3 2 3 3 2 1 4 3 3 4 4 5 5 3 2 2 2 3 3 3 2 2 2 1 1 1 1 1 1 2 2 2 3 3 3 3 3
2 2 2 3 1 1 3 3 1 1 2 3 4 4 2 3 4 4 3 4 3 2 2 2 2 2 3 2 2 2 1 1 1 1 1 2 2 2 2 3 3 3 3 3
2 1 2 2 1 2 2 1 1 2 2 4 5 4 3 4 4 3 3 2 2 1 1 1 1 1 1 1 1 1 1 1 1 1 2 2 2 2 2 2 3 3 3 3
1 1 2 3 5 5 4 3 3 3 3 3 3 3 1 4 5 4 3 2 2 1 1 0 0 1 1 1 1 0 0 0 1 1 2 2 2 3 3 3 3 3 3 3
1 1 3 3 1 1 2 3 4 3 4 3 3 4 1 5 4 3 2 1 1 1 1 1 1 1 1 1 1 1 1 1 1 1 2 2 2 3 3 3 3 3 3 4
3 2 2 1 1 1 2 4 4 3 2 4 4 4 2 3 2 2 1 1 1 1 1 1 1 1 1 1 1 1 1 1 1 1 2 2 3 3 3 3 3 4 4 4
2 3 5 5 2 3 5 5 5 5 5 5 7 6 3 2 2 1 1 2 2 2 2 2 1 1 1 1 1 1 1 1 1 1 2 3 3 3 3 3 3 4 4 4
2 3 5 6 5 3 5 7 9 10 9 8 7 7 7 3 3 3 2 1 1 2 2 2 2 1 1 1 1 1 1 1 1 2 2 3 3 3 3 4 4 4 4 5
2 2 2 5 6 5 7 9 10 12 10 11 10 10 6 3 3 3 3 2 3 3 3 2 2 2 2 2 2 1 1 2 2 2 3 3 3 3 3 4 4 4 4 5
3 3 2 3 3 3 9 11 12 8 9 9 12 10 4 4 5 5 4 5 4 4 4 3 3 3 3 3 2 2 2 2 2 3 3 3 3 3 4 4 4 4 4 4
4 3 2 2 1 7 7 3 8 9 9 10 8 5 5 6 5 5 4 4 4 4 4 4 4 3 3 2 2 2 2 2 2 3 3 3 3 4 4 4 4 5 4 4
3 4 3 3 4 8 5 4 5 7 8 9 10 9 6 4 4 4 2 2 3 4 3 3 3 3 3 3 2 2 2 2 3 3 3 3 3 4 4 5 4 4 4 5
1 3 3 4 4 6 3 3 3 3 5 4 7 7 6 2 3 5 1 1 2 3 2 2 2 2 3 3 2 2 3 3 3 3 3 3 3 4 4 4 4 4 4 5
4 4 7 6 6 6 2 3 4 3 5 1 3 4 4 4 5 3 2 2 2 2 2 2 2 2 3 3 2 3 3 4 3 2 3 3 3 4 4 4 4 4 4 5
7 6 6 5 6 7 4 5 5 4 1 1 1 2 2 4 3 2 2 3 2 2 2 1 2 2 2 3 3 3 4 3 2 2 3 3 3 3 3 3 3 3 4 4
7 7 5 7 7 3 5 5 3 1 1 2 2 2 2 3 4 3 4 3 3 3 2 1 2 2 2 2 3 4 3 2 2 2 2 2 3 2 2 2 3 3 3 3
5 4 3 4 7 5 5 4 4 3 3 3 2 2 3 4 5 5 4 4 3 3 2 2 2 2 3 2 2 3 2 1 1 2 2 2 2 2 2 2 2 2 2 3
4 5 4 6 6 5 5 6 6 4 4 4 3 3 4 5 6 5 5 4 4 3 2 2 3 3 3 2 2 2 2 1 1 2 2 2 2 2 2 2 2 3 3 3
5 6 6 7 5 5 5 5 4 5 6 6 5 5 4 5 6 5 5 4 4 3 3 2 3 3 3 2 2 2 2 2 2 2 2 1 1 1 2 2 3 3 3 5
Wind_Direction
193 203 213 218 227 268 297 279 268 274 17 263 255 260 247 220 217 216 208 193 183 168 147 143 147 130 119 112 111 122 125 123 118 120 126 123 127 92 65 61 39 28 19 6
177 230 242 244 249 267 278 281 286 314 2 285 271 269 258 230 226 222 217 202 183 169 154 147 146 139 132 127 118 120 125 131 126 124 133 159 175 194 189 66 55 13 352 349
202 256 227 229 256 256 255 270 293 301 313 261 266 276 237 208 209 206 207 192 174 165 154 152 150 140 133 129 129 133 141 143 135 129 133 132 70 26 70 290 263 294 284 317
223 239 236 216 240 257 254 304 309 306 301 277 226 280 250 194 198 193 189 181 179 140 138 142 147 140 134 126 116 116 124 133 150 154 175 182 191 218 244 248 254 271 256 266
202 237 239 234 246 264 289 326 287 283 278 285 244 242 264 192 202 192 163 146 132 121 142 147 148 142 128 120 125 132 135 149 155 188 202 208 214 228 235 250 248 258 262 247
224 282 280 270 253 233 228 306 261 248 257 259 230 216 265 203 194 167 142 132 133 134 129 136 134 124 119 117 123 130 146 172 188 231 226 223 217 225 232 250 254 261 256 256
210 207 141 330 208 182 173 125 264 222 220 240 203 209 245 216 115 140 144 134 127 133 129 129 133 137 135 132 140 154 166 206 225 250 261 245 238 226 227 238 240 252 257 264
202 207 178 200 203 199 203 201 189 227 252 284 208 225 239 141 105 100 116 126 125 125 131 136 145 146 148 150 159 171 185 230 242 270 296 279 260 236 235 241 242 247 250 252
240 207 163 193 251 251 202 214 244 265 279 276 241 218 186 138 125 115 114 122 131 123 118 119 122 134 144 157 171 189 196 236 257 285 291 280 287 264 250 253 254 251 254 261
318 250 175 143 204 267 272 191 167 194 229 258 251 223 211 172 183 170 153 145 144 116 103 93 104 116 123 141 153 162 174 218 255 282 289 302 294 291 268 259 261 262 263 268
275 193 189 179 203 198 193 197 215 224 239 233 262 257 161 155 160 163 154 148 141 152 163 157 73 95 104 109 124 137 179 221 268 285 299 302 299 299 284 265 259 261 264 264
181 210 232 212 141 351 236 215 194 196 242 231 256 267 65 99 108 115 113 96 115 159 183 166 148 106 126 159 176 197 229 260 284 302 301 293 294 295 290 278 273 270 270 268
153 169 208 234 252 268 247 229 212 207 237 228 226 248 131 100 83 98 125 205 203 209 206 197 190 191 204 212 222 236 243 266 298 305 300 299 298 295 293 283 284 286 282 280
154 191 209 222 204 181 212 217 206 195 216 238 234 246 238 230 260 267 256 244 226 220 216 212 223 221 222 238 247 257 280 294 301 298 293 291 293 295 297 297 289 289 285 280
165 223 237 260 266 242 226 218 207 213 221 226 242 251 260 263 256 263 258 247 250 246 229 228 232 238 234 254 260 261 281 297 302 300 295 295 304 304 306 305 296 287 281 280
185 230 252 262 245 245 258 241 221 225 232 241 257 265 262 278 291 290 288 270 260 251 248 246 240 237 239 248 262 267 277 290 297 294 296 303 309 309 304 301 300 299 294 290
178 179 211 256 222 281 260 230 215 217 219 215 235 245 266 280 278 275 270 263 253 253 255 250 244 235 235 237 244 246 260 281 287 285 290 295 301 304 303 301 306 302 297 297
173 185 214 254 248 241 244 194 193 214 233 223 233 250 250 257 270 265 253 237 252 260 253 247 242 237 237 240 238 243 256 259 265 273 280 286 294 297 300 302 300 301 301 297
191 184 216 222 245 265 251 207 181 198 249 225 228 246 258 287 306 282 227 201 237 256 252 239 237 234 232 227 221 227 249 251 254 263 269 281 290 293 297 299 300 304 305 302
185 180 210 220 237 248 241 161 143 139 263 230 207 231 243 245 263 261 222 311 285 269 238 234 230 221 220 224 203 220 245 249 255 264 274 283 285 283 288 295 301 303 303 302
178 199 215 226 240 261 217 140 123 166 243 247 194 222 221 216 229 267 317 312 297 280 261 231 224 220 221 213 197 224 244 252 262 275 277 277 280 280 281 291 299 306 310 311
184 190 201 201 223 245 160 148 187 218 247 225 246 234 238 250 272 292 293 285 281 274 262 241 233 238 225 201 200 227 247 257 267 273 275 277 284 289 294 298 304 308 312 315
202 199 196 203 218 233 177 198 215 190 252 270 269 270 252 260 267 272 275 270 264 258 253 244 230 248 246 215 207 229 249 247 261 279 284 291 300 299 296 298 303 308 312 317
219 202 216 249 253 243 225 233 239 229 232 255 265 265 254 261 263 266 266 266 260 258 244 239 230 243 258 255 241 238 243 232 241 264 282 290 291 294 297 293 292 299 305 311
207 178 209 245 263 274 245 226 231 238 248 257 254 244 239 247 258 257 259 255 252 256 246 229 229 240 254 260 252 249 241 219 241 260 269 279 285 288 300 298 292 290 285 292
203 192 199 230 219 212 246 238 225 236 245 243 247 256 249 238 249 253 252 248 242 237 229 232 235 241 253 251 254 257 246 218 217 248 262 279 298 304 301 305 316 310 298 311
Height
1482 1485 1486 1485 1484 1482 1482 1482 1482 1482 1483 1485 1485 1483 1482 1482 1483 1484 1485 1487 1488 1489 1490 1491 1493 1494 1494 1495 1496 1497 1498 1500 1501 1502 1502 1503 1503 1504 1505 1505 1505 1506 1506 1506
1483 1485 1482 1481 1481 1482 1483 1484 1483 1483 1483 1484 1484 1482 1479 1479 1480 1481 1482 1484 1485 1487 1488 1489 1490 1491 1492 1493 1494 1495 1496 1498 1499 1499 1500 1500 1501 1502 1502 1502 1503 1503 1503 1503
1481 1483 1481 1482 1483 1483 1484 1487 1486 1487 1486 1483 1485 1482 1476 1475 1476 1478 1480 1481 1483 1484 1485 1487 1488 1489 1490 1490 1491 1493 1494 1495 1496 1497 1498 1498 1498 1499 1499 1499 1500 1500 1500 1500
1481 1481 1481 1482 1484 1484 1486 1485 1486 1488 1490 1489 1485 1491 1476 1473 1474 1476 1478 1479 1481 1482 1483 1484 1485 1486 1487 1489 1490 1491 1492 1493 1493 1494 1494 1495 1495 1495 1496 1496 1496 1497 1497 1497
1482 1481 1482 1483 1484 1485 1487 1486 1487 1488 1491 1493 1486 1490 1481 1472 1474 1474 1476 1478 1479 1480 1482 1482 1483 1484 1485 1487 1488 1489 1489 1490 1491 1491 1492 1492 1492 1492 1493 1493 1493 1493 1493 1493
1482 1482 1482 1483 1484 1485 1486 1488 1488 1489 1492 1497 1484 1486 1481 1473 1471 1472 1474 1476 1478 1479 1480 1481 1482 1483 1484 1485 1485 1486 1487 1488 1488 1488 1489 1489 1489 1489 1489 1489 1489 1489 1489 1489
1484 1483 1483 1484 1485 1486 1488 1493 1497 1496 1497 1490 1477 1481 1480 1470 1468 1470 1473 1474 1476 1478 1479 1480 1480 1481 1481 1482 1483 1484 1484 1485 1485 1486 1486 1486 1486 1486 1486 1486 1486 1486 1485 1485
1483 1485 1484 1484 1485 1487 1487 1490 1497 1497 1490 1483 1478 1482 1475 1469 1469 1470 1472 1473 1475 1477 1478 1478 1478 1479 1479 1480 1481 1481 1481 1482 1482 1482 1482 1483 1483 1483 1483 1483 1482 1482 1482 1481
1481 1484 1483 1483 1484 1485 1486 1488 1487 1492 1493 1493 1481 1474 1471 1469 1469 1471 1472 1473 1475 1476 1477 1477 1477 1477 1478 1478 1478 1479 1479 1479 1479 1479 1479 1479 1479 1479 1479 1479 1479 1478 1478 1477
1480 1485 1483 1484 1485 1485 1485 1485 1490 1493 1494 1489 1475 1472 1474 1472 1471 1471 1472 1472 1474 1475 1475 1476 1476 1476 1476 1476 1476 1476 1476 1476 1476 1476 1476 1476 1476 1476 1475 1475 1474 1474 1473 1473
1481 1487 1487 1486 1487 1486 1487 1488 1487 1489 1488 1490 1484 1478 1465 1466 1467 1469 1470 1471 1472 1473 1474 1474 1474 1474 1474 1474 1474 1474 1473 1473 1473 1473 1473 1472 1472 1472 1472 1471 1470 1470 1469 1468
1481 1485 1487 1485 1485 1484 1484 1484 1487 1492 1490 1485 1487 1482 1465 1465 1466 1467 1469 1470 1471 1472 1472 1472 1472 1472 1472 1471 1471 1471 1471 1470 1470 1470 1469 1469 1468 1468 1467 1467 1466 1465 1464 1464
1481 1486 1488 1486 1490 1489 1487 1485 1486 1489 1489 1487 1487 1480 1466 1466 1466 1467 1468 1469 1469 1470 1470 1470 1470 1470 1469 1469 1468 1468 1468 1468 1467 1466 1466 1465 1465 1464 1463 1463 1462 1461 1460 1459
1479 1484 1486 1481 1478 1482 1486 1485 1485 1488 1489 1485 1478 1472 1468 1467 1467 1467 1467 1467 1467 1468 1468 1468 1468 1467 1467 1467 1466 1465 1465 1465 1464 1463 1462 1462 1461 1460 1460 1459 1458 1457 1456 1455
1480 1482 1481 1478 1476 1478 1479 1481 1483 1485 1481 1481 1473 1471 1466 1466 1465 1465 1465 1465 1465 1465 1466 1465 1465 1465 1464 1464 1463 1463 1462 1462 1461 1460 1459 1458 1458 1457 1456 1455 1453 1453 1452 1450
1479 1480 1480 1479 1476 1477 1478 1475 1476 1478 1476 1474 1471 1468 1462 1463 1463 1463 1462 1462 1462 1462 1463 1462 1462 1461 1461 1461 1460 1459 1459 1458 1458 1457 1456 1455 1454 1453 1452 1451 1450 1448 1447 1446
1479 1481 1481 1477 1476 1477 1476 1468 1469 1469 1467 1469 1468 1462 1460 1461 1461 1460 1460 1459 1459 1459 1459 1459 1458 1458 1457 1457 1457 1456 1456 1455 1455 1454 1453 1452 1451 1450 1449 1447 1446 1445 1443 1442
1478 1480 1480 1478 1479 1480 1462 1456 1457 1461 1460 1460 1458 1457 1457 1458 1457 1457 1456 1456 1456 1456 1456 1455 1455 1454 1454 1454 1453 1453 1452 1452 1451 1450 1450 1449 1448 1447 1445 1444 1442 1441 1439 1438
1474 1478 1477 1477 1475 1465 1457 1454 1455 1459 1458 1453 1454 1454 1454 1455 1455 1453 1453 1453 1453 1453 1452 1452 1451 1451 1450 1450 1450 1449 1449 1448 1448 1447 1446 1446 1445 1443 1442 1441 1439 1438 1436 1434
1474 1476 1478 1474 1473 1466 1453 1452 1450 1456 1458 1449 1449 1450 1451 1453 1456 1452 1451 1450 1450 1449 1449 1448 1448 1447 1447 1447 1447 1446 1445 1445 1444 1444 1443 1442 1441 1440 1439 1438 1436 1435 1433 1431
1474 1475 1475 1472 1470 1459 1452 1451 1452 1460 1454 1447 1446 1447 1448 1450 1450 1449 1448 1447 1446 1446 1445 1445 1444 1444 1444 1444 1443 1442 1442 1442 1442 1441 1440 1439 1438 1437 1436 1434 1433 1431 1430 1428
1467 1468 1469 1468 1467 1459 1450 1451 1453 1450 1446 1445 1445 1445 1446 1446 1446 1445 1444 1444 1443 1443 1442 1442 1441 1441 1441 1440 1440 1439 1439 1439 1439 1438 1437 1436 1435 1434 1433 1432 1430 1429 1427 1425
1458 1458 1457 1458 1454 1446 1445 1445 1445 1445 1445 1444 1444 1443 1443 1443 1442 1442 1441 1441 1440 1440 1439 1439 1438 1437 1438 1437 1437 1436 1436 1436 1435 1435 1434 1433 1432 1431 1430 1429 1427 1426 1425 1423
1452 1451 1452 1451 1445 1443 1443 1442 1442 1442 1442 1441 1441 1441 1441 1440 1439 1439 1438 1437 1437 1436 1436 1435 1435 1434 1434 1434 1434 1434 1433 1433 1432 1431 1431 1430 1429 1428 1428 1427 1425 1424 1423 1421
1445 1448 1449 1448 1442 1440 1439 1439 1439 1439 1439 1438 1438 1438 1437 1437 1436 1435 1434 1434 1433 1433 1433 1432 1432 1431 1431 1431 1431 1431 1430 1430 1429 1429 1428 1427 1427 1426 1425 1424 1423 1422 1421 1420
1440 1442 1444 1440 1436 1437 1435 1434 1435 1435 1434 1434 1434 1433 1433 1433 1432 1431 1430 1430 1430 1429 1429 1429 1428 1428 1428 1428 1428 1428 1428 1427 1427 1426 1425 1425 1424 1424 1423 1422 1421 1420 1419 1418